Overview Statistics Trail Chart Weather Telemetry Raw packets
 

This is the latest recevied weather packets stored in our database for station/object KD7AWQ. If no packets are shown the sender has not sent any weather packets the latest 10 day(s).

<< 69 70 71 72 73 74 75 >>
Time Temp. Humidity Pressure Rain* Wind** Luminosity Snow
1787937081 32.22° C 27% 1191.4 hPa 0 mm - 761 W/m² -
1787936780 32.22° C 27% 1191.2 hPa 0 mm - 750 W/m² -
1787936475 32.22° C 27% 1191 hPa 0 mm - 736 W/m² -
1787936175 32.22° C 28% 1191.2 hPa 0 mm - 714 W/m² -
1787935870 32.22° C 28% 1191.3 hPa 0 mm - 691 W/m² -
1787935565 31.67° C 28% 1191.2 hPa 0 mm - 678 W/m² -
1787935262 31.67° C 28% 1191.2 hPa 0 mm - 682 W/m² -
1787934957 31.67° C 29% 1190.8 hPa 0 mm - 669 W/m² -
1787934652 31.67° C 28% 1190.9 hPa 0 mm - 661 W/m² -
1787934355 31.67° C 29% 1191.2 hPa 0 mm - 664 W/m² -
1787934050 31.67° C 29% 1191 hPa 0 mm - 640 W/m² -
1787933750 31.67° C 29% 1191 hPa 0 mm - 616 W/m² -
1787933445 31.11° C 30% 1191 hPa 0 mm - 600 W/m² -
1787933145 30.56° C 30% 1191 hPa 0 mm - 582 W/m² -
1787932839 31.11° C 31% 1190.9 hPa 0 mm - 566 W/m² -
1787932533 30.56° C 31% 1191 hPa 0 mm - 558 W/m² -
1787932228 30.56° C 32% 1191 hPa 0 mm - 540 W/m² -
1787931927 31.11° C 30% 1190.9 hPa 0 mm - 524 W/m² -
1787931627 31.11° C 30% 1190.8 hPa 0 mm - 509 W/m² -
1787931327 30.56° C 32% 1190.8 hPa 0 mm - 505 W/m² -
1787931022 30.56° C 31% 1190.9 hPa 0 mm - 308 W/m² -
1787930721 31.11° C 31% 1190.8 hPa 0 mm - 494 W/m² -
1787930416 30.56° C 32% 1190.9 hPa 0 mm - 486 W/m² -
1787930113 30.56° C 33% 1191 hPa 0 mm - 484 W/m² -
1787929809 30° C 33% 1191 hPa 0 mm - 484 W/m² -

* Rain latest hour (hover to see other rain measurements)
** Current wind speed in m/s (hover to see current wind gust speed)